Regional Weather Roundup
Issued by NWS Sterling, VA

Home | Current Version | Previous Version | Text Only | Print | Product List | Glossary Off
Versions: 1 2 3 4 5 6 7 8 9 10 11 12 13 14 15 16 17 18 19 20 21 22 23 24 25 26 27 28 29 30 31 32 33 34 35 36 37 38 39 40 41 42 43 44 45 46 47 48 49 50

000
ASUS41 KLWX 300110
RWRLWX

REGIONAL WEATHER ROUNDUP
NATIONAL WEATHER SERVICE BALTIMORE MD/WASHINGTON DC
900 PM EDT TUE JUL 29 2014

Note: "FAIR" indicates few or no clouds below 12,000 feet
with no significant weather and/or obstructions to visibility.
 TC=TEMPERATURE CELSIUS

 * =Non NWS site. Station does not report precipitation (e.g. rain,
    snow, etc.), thunder, or fog.

DCZ001-MDZ009-015-VAZ040>042-051-053>054-300200-
WASHINGTON METRO
  /KDAA//-FT BELVOIR

CITY           SKY/WX    TMP DP  RH WIND       PRES   REMARKS
WASHINGTON NAT MOCLDY    71  47  42 NW13      30.00R
DULLES         PTCLDY    66  45  46 NW6       30.00S
ANDREWS AFB    CLEAR     68  49  49 W3        29.99R
QUANTICO       MOCLDY    67  51  56 NW5       30.01R
COLLEGE PARK*  CLEAR     68  50  52 CALM      29.99S
LEESBURG*      CLEAR     63  54  72 CALM      30.01S
MANASSAS*      CLEAR     63  54  72 CALM      30.01R
GAITHERSBURG*  PTCLDY    61  48  63 CALM      30.04S

$$

MDZ006>007-011-014-300200-
BALTIMORE METRO

CITY           SKY/WX    TMP DP  RH WIND       PRES   REMARKS
BWI AIRPORT    PTCLDY    67  51  56 NW5       29.98S
MD SCIENCE CTR   N/A     71  52  50 MISG      29.99S
MARTIN STATE   PTCLDY    68  59  73 NW3       29.99S
ANNAPOLIS      CLEAR     69  53  56 NW6       29.98R
FORT MEADE*    CLEAR     63  52  67 NW5       30.01S

$$

MDZ012-015-019>023-300200-
MARYLAND EASTERN SHORE

CITY           SKY/WX    TMP DP  RH WIND       PRES   REMARKS
OCEAN CITY     CLEAR     60  55  83 CALM      29.97R
SALISBURY      NOT AVBL
BAY BRIDGE AP*   N/A     70  50  49 NW12      29.98R
CAMBRIDGE*     CLEAR     64  52  63 CALM      29.97S
EASTON*        CLEAR     68  57  68 CALM      30.01R

$$

MDZ017>025-300200-
SOUTHERN MARYLAND

CITY           SKY/WX    TMP DP  RH WIND       PRES   REMARKS
PATUXENT RIVER PTCLDY    65  51  60 W6        29.98R
ST INIGOES     CLEAR     70  49  47 NW5       29.98R
LEONARDTOWN*   CLEAR     63  52  67 CALM      30.01R

$$

MDZ003>005-300200-
NORTH CENTRAL MARYLAND

CITY           SKY/WX    TMP DP  RH WIND       PRES   REMARKS
FREDERICK*     PTCLDY    61  57  88 CALM      30.03R
HAGERSTOWN APT CLEAR     64  49  57 NW3       30.01S
WESTMINSTER*   PTCLDY    66  55  68 CALM      30.01S

$$

MDZ501>502-300200-
WESTERN MARYLAND

CITY           SKY/WX    TMP DP  RH WIND       PRES   REMARKS
OAKLAND*       CLEAR     52  50  93 W3        30.08R
CUMBERLAND*    MOCLDY    64  48  55 CALM      30.07R

$$

VAZ025>031-300200-
SHENANDOAH VALLEY

CITY           SKY/WX    TMP DP  RH WIND       PRES   REMARKS
WINCHESTER*    CLEAR     63  46  55 NW3       30.02R
STAUNTON*      CLOUDY    65  54  67 NE3       30.05R

$$

WVZ021-048>050-054>055-300200-
EASTERN WEST VIRGINIA PANHANDLE

CITY           SKY/WX    TMP DP  RH WIND       PRES   REMARKS
MARTINSBURG    PTCLDY    60  50  69 CALM      30.02S
PETERSBURG*    CLEAR     60  48  64 CALM      30.05R

$$

VAZ036>039-050-300200-
CENTRAL FOOTHILLS

CITY           SKY/WX    TMP DP  RH WIND       PRES   REMARKS
CHARLOTTESVILL MOCLDY    69  55  60 NE7       30.01R
ORANGE*        CLOUDY    68  52  56 N3        30.03R

$$

VAZ055>057-300200-
NORTH AND CENTRAL PIEDMONT

CITY           SKY/WX    TMP DP  RH WIND       PRES   REMARKS
FREDERICKSBRG* PTCLDY    69  53  55 N7        30.00R
STAFFORD*      CLEAR     60  59  96 CALM      30.05R

$$

NCZ024-NYZ072-PAZ021-071-VAZ022-071-300200-
OTHER REGIONAL OBSERVATIONS

CITY           SKY/WX    TMP DP  RH WIND       PRES   REMARKS
NEW YORK CITY  PTCLDY    71  49  45 VRB5      29.97S
PHILADELPHIA   CLOUDY    73  53  49 NW8       29.96S
PITTSBURGH     PTCLDY    62  52  69 SW5       30.03S
ROANOKE        MOCLDY    70  52  52 N9        30.03R
RICHMOND       MOCLDY    74  56  53 N10       29.98R
RALEIGH        PTCLDY    71  62  73 CALM      29.97R

$$

ANZ530>537-300200-
MARINE OBSERVATIONS

STATION/POSITION TIME  TEMP    WIND        PRES
                       AIR SEA DIR/SP/G
                 (UTC) (F)     (DEG/KT/KT) (MB)
THOMAS PT LIGHT  0100   70 78  320/ 10/ 12 1015.6R
BALT KEY BRIDGE  0100   74     310/ 13/ 16 1015.0S
COVE POINT       0100   71     320/  8/ 11 1015.0R
LEWISETTA        0100   73 78  350/  7/  9 1015.1R
SOLOMONS ISLAND  0100      80                N/A
PINEY POINT      0100           10/  9/ 10   N/A

$$




USA.gov is the U.S. government's official web portal to all federal, state and local government web resources and services.